Location: ??? ???
(33.4974°N, 35.4618°E)
Time: 18:35:19
(UTC+00:00)

Cosmos 1812 Rocket - Pass Details

Date: 29 October 2020
Orbit: 605 x 632 km, 82.5° (Epoch: 30 November)

Event Time Altitude Azimuth Distance (km) Brightness Sun altitude
Rises 15:40:03 0° 165° (SSE) 2,893 6.9 -11.3°
Reaches altitude 10° 15:42:26 10° 155° (SSE) 1,986 6.0 -11.8°
Maximum altitude 15:46:23 34° 91° (E) 1,031 4.2 -12.6°
Drops below altitude 10° 15:50:21 10° 27° (NNE) 1,982 5.8 -13.4°
Sets 15:52:43 0° 18° (NNE) 2,887 6.7 -13.9°
